Wind_Speed
2 1 2 6 12 16 16 14 13 13 17 24 26 26 25 27 31 33 37 40 42 42 45 46 47 43 42 43 42 40 38 36 36 35 35 34 32 30 30 29 27 26 25 24
4 6 6 9 10 9 9 12 15 17 20 24 29 30 27 28 30 35 38 39 39 43 44 46 44 37 38 40 40 36 34 34 34 34 34 33 32 30 29 27 26 25 24 22
8 7 9 8 6 6 7 10 13 18 22 24 24 22 20 19 24 32 35 34 37 40 43 40 38 36 34 30 24 26 30 32 34 36 35 34 33 31 29 27 25 24 23 22
4 7 11 8 8 8 11 14 18 20 21 20 17 19 18 20 26 32 32 32 35 37 39 41 42 41 39 37 39 35 31 31 34 35 35 33 31 30 28 27 25 23 23 23
5 8 10 8 9 11 12 15 16 14 13 13 13 17 20 23 27 29 30 32 35 37 38 39 40 41 42 41 39 39 36 35 33 34 35 33 31 29 26 25 25 24 24 25
2 5 7 7 8 10 11 10 8 10 16 20 21 20 20 22 25 28 30 32 34 35 36 37 38 39 40 40 40 40 38 37 36 36 35 34 33 30 28 27 27 27 27 28
6 5 4 8 10 12 13 12 10 14 21 25 20 11 19 21 24 27 29 30 31 32 34 36 37 38 39 40 40 40 41 39 38 39 39 37 35 34 33 31 30 30 31 32
9 8 6 10 13 13 11 9 11 16 18 20 23 20 24 25 28 30 30 31 32 34 36 38 39 41 42 43 43 44 44 45 44 43 43 42 41 40 39 37 36 35 35 35
9 8 9 13 14 13 13 10 11 15 15 13 16 28 30 30 31 31 32 35 37 39 40 41 43 45 46 48 49 49 50 50 49 49 49 48 47 47 45 44 43 42 41 40
7 8 6 9 11 13 16 16 15 15 16 16 15 27 31 33 34 34 37 39 40 41 43 44 46 48 50 52 53 54 54 55 55 55 54 54 54 54 53 51 51 50 48 46
8 7 6 8 11 12 14 16 18 19 19 21 21 28 32 35 37 39 40 41 42 44 46 48 50 52 53 55 57 58 58 59 59 59 59 59 59 59 59 58 57 56 55 54
10 9 8 8 11 13 14 19 21 22 22 23 25 32 33 36 39 41 43 46 48 50 51 53 55 57 58 59 61 62 63 64 64 64 64 63 63 63 63 63 63 62 61 59
11 10 10 10 15 17 18 20 23 24 26 27 29 35 36 38 40 43 46 49 52 55 57 59 61 63 64 65 67 68 69 69 70 70 70 70 69 69 69 68 67 66 65 64
11 12 12 11 12 15 17 20 23 25 28 30 32 39 42 43 45 48 52 55 58 61 63 65 67 69 71 72 73 73 74 74 75 75 75 74 74 75 74 74 73 72 71 70
13 14 15 15 14 14 17 21 24 27 30 34 38 42 47 49 52 55 57 60 63 65 68 70 72 74 75 75 74 73 71 69 67 65 64 64 65 67 69 71 73 75 75 75
15 16 17 17 16 16 19 22 25 31 36 40 42 45 50 54 56 58 61 64 67 71 73 74 74 73 71 68 64 59 56 52 49 47 45 44 45 46 49 52 57 62 67 71
17 20 21 20 19 19 22 25 30 35 39 44 47 49 52 55 59 62 65 68 72 73 72 70 66 62 58 53 49 47 44 43 41 40 40 40 40 40 39 40 42 45 49 55
19 21 23 24 23 23 27 30 34 38 41 46 48 51 55 59 62 64 67 69 70 68 64 59 55 50 47 45 43 43 42 43 43 43 43 43 42 41 40 40 39 38 39 42
24 25 25 26 25 29 34 35 39 42 45 50 53 56 60 63 65 66 66 66 63 58 53 50 47 45 44 44 45 46 46 46 45 45 45 45 44 44 43 42 40 39 38 37
26 27 27 28 30 33 36 40 44 47 48 53 57 60 62 65 68 66 63 58 52 49 47 47 47 47 47 48 48 49 48 48 48 48 47 47 46 45 44 42 40 39 37 36
23 26 28 29 32 37 39 44 46 48 51 54 57 60 64 68 67 64 57 50 47 46 47 48 49 50 51 51 51 51 51 52 51 51 49 48 47 46 44 42 39 38 36 35
24 28 30 32 35 39 42 46 49 52 55 58 61 64 67 67 62 56 51 48 47 48 50 51 53 53 53 53 54 54 53 52 52 51 50 48 46 44 42 39 37 36 34 33
27 29 32 35 37 41 45 48 51 55 58 61 63 66 67 64 57 51 48 47 49 51 53 54 55 55 54 54 54 54 53 52 51 49 48 45 42 41 38 36 35 34 33 31
32 32 34 37 39 43 47 50 52 55 59 61 64 66 65 60 54 49 48 50 52 54 54 55 55 56 55 55 54 53 51 49 47 45 43 41 38 36 35 33 32 31 30 29
29 33 36 39 42 44 46 50 53 56 59 62 64 65 62 57 51 49 50 52 53 55 56 56 55 55 53 51 48 46 45 43 41 38 36 35 34 33 31 30 29 28 28 27
33 35 38 41 44 46 49 51 54 57 60 62 64 63 58 53 49 49 51 53 55 56 56 55 54 51 49 47 45 42 39 36 33 31 29 27 26 25 25 25 25 25 25 24
Wind_Direction
304 312 326 252 242 240 233 220 218 224 236 250 256 258 256 254 259 265 270 274 279 278 279 279 275 271 273 275 275 274 273 276 281 284 288 290 292 294 293 289 285 281 277 272
301 215 234 275 278 264 257 251 241 238 245 252 261 269 268 261 263 269 271 275 276 275 273 268 264 257 265 267 265 265 269 277 281 285 287 290 292 293 293 288 282 276 270 264
314 322 307 309 303 284 263 251 248 244 245 256 271 282 283 274 263 266 273 278 280 278 279 277 275 273 273 269 275 284 277 280 285 288 289 292 292 291 290 286 279 272 266 261
270 291 306 304 282 274 275 264 255 259 263 266 266 274 276 263 256 263 275 285 289 290 287 286 287 287 287 287 295 299 292 290 290 292 292 291 291 290 289 284 276 268 262 261
291 305 309 304 290 289 282 276 276 276 278 272 261 262 257 257 262 271 279 287 290 291 290 288 289 291 293 295 295 299 299 297 294 294 293 290 293 292 289 283 276 271 266 262
38 344 339 331 318 312 310 304 296 293 287 273 256 241 247 259 276 286 288 290 290 291 290 288 289 290 291 293 295 296 296 298 296 295 294 293 292 292 288 282 277 274 270 267
359 299 292 328 327 311 307 309 308 306 311 314 317 261 253 268 284 291 293 293 293 293 292 290 290 290 291 291 293 293 295 294 293 292 292 290 288 286 283 279 277 276 274 271
328 340 343 319 315 320 321 320 317 309 305 313 318 301 280 281 281 286 292 296 297 297 295 293 293 292 292 292 292 291 290 290 289 288 288 287 285 282 280 278 276 274 272 271
317 325 312 308 317 332 336 325 299 294 300 301 301 292 287 285 282 281 290 296 298 298 296 294 293 292 291 291 291 290 289 288 287 285 284 283 282 280 278 276 275 273 272 270
310 305 300 303 306 311 319 327 324 316 307 295 292 294 294 298 299 295 297 297 299 298 296 293 291 290 289 288 288 287 286 285 284 283 282 280 279 277 275 274 272 272 271 270
313 316 323 307 298 298 307 316 312 308 304 298 294 290 290 295 294 296 298 298 298 297 295 294 292 290 289 288 287 286 285 283 282 281 279 278 276 275 274 272 271 270 269 268
321 327 326 307 289 289 309 318 318 315 312 307 303 294 295 295 297 299 300 299 298 296 295 293 292 291 289 288 287 285 284 283 282 280 278 277 275 274 273 271 270 269 268 267
324 327 323 319 319 327 326 321 312 308 305 307 304 298 300 300 301 301 299 298 297 297 296 295 294 293 291 289 287 286 284 282 281 279 278 276 274 273 271 270 269 268 267 266
328 328 327 322 314 309 309 307 306 305 305 306 305 304 305 306 305 303 302 302 301 300 299 297 296 295 293 291 289 287 285 283 281 280 278 275 273 271 270 268 267 266 265 264
337 335 333 329 322 312 304 301 305 308 309 309 309 309 308 308 307 306 306 305 304 302 301 300 298 296 295 293 292 290 289 287 285 284 281 278 276 273 270 267 265 264 262 261
339 338 335 331 328 321 307 306 311 311 311 311 311 311 311 311 310 310 309 308 306 304 304 302 301 299 298 296 295 294 293 292 291 289 286 284 282 279 276 273 269 266 263 261
340 339 337 335 332 324 310 317 314 313 314 314 315 315 314 313 313 314 313 310 308 308 306 305 303 302 301 300 298 297 295 293 291 289 287 286 284 282 280 279 277 273 269 265
341 338 336 337 337 323 322 321 318 317 318 316 318 318 318 318 317 317 315 312 311 310 309 308 307 306 304 302 300 298 296 294 291 289 288 286 284 283 281 279 279 278 275 271
340 340 338 339 337 323 327 326 323 324 324 322 323 323 323 321 320 320 317 316 315 314 313 312 311 308 306 303 301 299 297 294 292 289 287 284 282 281 281 279 276 274 274 273
337 336 337 337 332 325 332 328 328 328 327 327 326 325 323 323 322 322 320 319 318 317 316 314 312 308 306 304 302 299 296 294 292 289 287 284 282 280 278 277 273 270 270 271
329 332 335 335 333 327 332 328 327 327 327 326 326 326 326 327 326 325 324 323 321 319 317 314 311 309 306 303 301 299 296 294 291 289 287 284 281 279 276 274 271 268 267 267
332 333 334 335 333 329 329 328 329 329 329 330 330 330 330 330 329 327 326 325 322 320 318 315 313 310 307 304 301 299 296 294 291 288 286 284 280 277 273 271 267 265 264 263
332 334 333 333 331 329 329 330 331 331 331 332 332 332 332 332 331 330 329 326 324 322 320 318 316 314 311 307 303 300 296 293 290 287 285 282 278 273 270 267 263 260 259 259
327 331 330 330 331 331 331 331 331 332 332 333 334 335 335 335 334 333 331 329 328 325 323 322 320 318 314 310 307 303 298 294 290 287 282 278 274 270 267 264 260 256 254 253
324 326 330 330 330 330 329 329 331 333 335 336 337 338 338 337 337 335 335 333 331 330 328 326 325 323 321 317 313 308 303 300 294 289 285 278 272 267 263 258 254 249 247 246
328 330 330 330 330 330 331 332 333 335 337 338 340 341 341 339 339 338 338 337 335 335 334 333 332 331 328 324 322 316 309 304 298 293 288 281 271 262 256 251 246 242 238 236
Height
5869 5870 5871 5870 5870 5871 5872 5874 5876 5879 5877 5874 5872 5873 5874 5874 5872 5870 5869 5867 5864 5861 5858 5851 5846 5840 5835 5834 5829 5830 5833 5834 5835 5835 5834 5833 5832 5831 5830 5829 5829 5828 5828 5828
5869 5868 5868 5868 5868 5868 5870 5872 5873 5873 5871 5869 5867 5867 5867 5867 5866 5864 5862 5860 5856 5850 5846 5836 5828 5819 5823 5822 5815 5811 5817 5823 5825 5825 5825 5825 5824 5824 5824 5822 5822 5822 5822 5822
5868 5867 5866 5867 5867 5867 5867 5867 5866 5865 5863 5863 5863 5862 5861 5861 5859 5855 5852 5850 5845 5839 5836 5825 5820 5812 5813 5811 5800 5804 5808 5814 5815 5818 5818 5818 5817 5816 5816 5816 5816 5816 5816 5816
5868 5867 5866 5866 5865 5864 5864 5862 5861 5860 5859 5859 5861 5859 5857 5853 5850 5848 5846 5844 5839 5832 5830 5824 5820 5815 5811 5809 5808 5808 5809 5808 5809 5810 5810 5810 5809 5809 5809 5808 5808 5809 5810 5810
5866 5865 5864 5864 5863 5861 5860 5858 5857 5856 5855 5854 5854 5854 5851 5847 5844 5843 5843 5841 5837 5831 5827 5822 5817 5814 5811 5809 5808 5806 5806 5804 5803 5802 5803 5802 5802 5802 5802 5802 5802 5802 5803 5804
5863 5863 5863 5862 5861 5860 5857 5856 5854 5853 5851 5848 5845 5843 5843 5842 5841 5839 5839 5836 5833 5828 5823 5819 5815 5811 5808 5805 5803 5801 5800 5799 5798 5796 5795 5794 5795 5794 5795 5795 5795 5796 5796 5796
5861 5860 5860 5861 5860 5859 5856 5854 5852 5851 5846 5841 5837 5837 5838 5837 5836 5834 5832 5830 5827 5823 5819 5815 5811 5808 5804 5801 5798 5795 5793 5792 5791 5789 5788 5787 5786 5786 5786 5787 5787 5788 5788 5788
5860 5860 5860 5861 5860 5857 5854 5853 5852 5849 5847 5845 5839 5837 5834 5832 5830 5828 5826 5824 5821 5818 5814 5809 5805 5800 5797 5793 5790 5788 5785 5783 5781 5780 5778 5777 5777 5777 5777 5777 5778 5778 5778 5779
5862 5861 5861 5860 5858 5856 5853 5852 5850 5847 5845 5844 5843 5834 5829 5825 5822 5820 5820 5818 5815 5811 5806 5802 5797 5792 5787 5783 5780 5777 5774 5772 5770 5768 5767 5766 5765 5765 5766 5766 5766 5767 5768 5768
5862 5861 5860 5859 5857 5855 5853 5850 5848 5845 5842 5840 5839 5831 5825 5821 5817 5814 5813 5811 5807 5802 5797 5793 5788 5783 5778 5773 5768 5765 5762 5759 5757 5755 5754 5753 5752 5752 5752 5752 5753 5753 5754 5756
5861 5859 5858 5857 5854 5852 5851 5849 5846 5843 5840 5837 5833 5830 5823 5818 5813 5809 5806 5802 5798 5793 5787 5782 5777 5771 5767 5761 5756 5751 5747 5744 5742 5740 5738 5737 5736 5735 5735 5736 5736 5737 5739 5740
5860 5858 5856 5854 5851 5848 5847 5846 5843 5840 5836 5833 5829 5825 5820 5814 5809 5804 5798 5793 5787 5781 5776 5770 5764 5758 5753 5747 5742 5737 5732 5728 5725 5722 5721 5719 5718 5717 5717 5717 5718 5719 5721 5723
5858 5857 5855 5853 5851 5847 5845 5843 5840 5836 5832 5829 5824 5819 5813 5808 5803 5797 5790 5783 5776 5769 5762 5755 5748 5742 5736 5730 5725 5719 5714 5709 5706 5702 5700 5699 5697 5697 5697 5697 5698 5699 5701 5704
5856 5854 5853 5851 5848 5846 5844 5841 5837 5832 5828 5824 5819 5811 5804 5799 5793 5786 5779 5771 5763 5755 5746 5738 5731 5723 5715 5708 5702 5697 5691 5686 5682 5678 5676 5674 5673 5672 5673 5674 5676 5678 5680 5683
5855 5853 5850 5847 5844 5843 5840 5837 5833 5828 5823 5818 5811 5804 5796 5789 5782 5774 5766 5758 5748 5738 5729 5720 5710 5701 5692 5684 5677 5670 5665 5660 5655 5653 5650 5648 5647 5647 5647 5648 5650 5653 5656 5660
5853 5850 5847 5844 5841 5839 5836 5832 5828 5823 5816 5810 5804 5798 5788 5779 5770 5762 5753 5742 5730 5719 5709 5698 5688 5678 5669 5661 5654 5648 5643 5638 5634 5632 5630 5629 5627 5626 5626 5626 5627 5629 5631 5635
5850 5847 5844 5841 5838 5834 5830 5828 5822 5816 5809 5802 5794 5788 5778 5769 5759 5748 5737 5725 5712 5700 5688 5676 5666 5657 5649 5642 5636 5631 5627 5623 5620 5618 5616 5614 5612 5611 5610 5610 5610 5610 5611 5612
5848 5845 5841 5837 5834 5830 5828 5821 5816 5809 5803 5793 5786 5777 5767 5757 5746 5734 5721 5706 5693 5680 5668 5658 5649 5641 5634 5628 5623 5619 5614 5610 5607 5604 5602 5600 5598 5597 5596 5596 5596 5595 5595 5595
5845 5841 5837 5833 5830 5825 5819 5814 5807 5801 5793 5782 5774 5764 5753 5742 5731 5720 5704 5688 5675 5663 5653 5645 5637 5629 5623 5617 5611 5606 5601 5597 5593 5590 5587 5585 5583 5582 5582 5581 5581 5581 5581 5581
5842 5838 5835 5830 5825 5819 5815 5806 5799 5792 5785 5773 5763 5752 5741 5729 5716 5705 5689 5674 5662 5651 5642 5633 5626 5618 5611 5604 5598 5592 5586 5582 5578 5574 5571 5569 5567 5566 5566 5566 5567 5567 5568 5568
5841 5837 5832 5827 5821 5813 5809 5800 5793 5786 5778 5767 5756 5743 5729 5714 5699 5685 5673 5662 5651 5642 5632 5623 5614 5606 5598 5590 5583 5576 5570 5565 5561 5557 5554 5552 5551 5550 5550 5551 5552 5553 5554 5555
5838 5833 5827 5822 5816 5811 5802 5794 5786 5777 5766 5754 5743 5729 5715 5702 5687 5673 5661 5651 5641 5632 5622 5612 5602 5593 5584 5575 5566 5559 5553 5547 5542 5538 5536 5534 5533 5533 5534 5535 5537 5539 5541 5543
5833 5829 5822 5818 5813 5804 5795 5786 5777 5767 5756 5745 5732 5719 5704 5689 5676 5663 5652 5642 5631 5621 5609 5598 5588 5578 5568 5558 5548 5540 5534 5528 5523 5520 5518 5516 5516 5517 5518 5520 5523 5525 5528 5531
5827 5824 5819 5812 5806 5798 5788 5779 5771 5761 5749 5736 5723 5708 5693 5678 5666 5654 5644 5633 5622 5610 5598 5585 5574 5562 5552 5541 5531 5521 5514 5508 5504 5501 5500 5499 5500 5501 5503 5506 5509 5513 5517 5520
5826 5820 5813 5806 5799 5793 5785 5774 5764 5754 5742 5728 5714 5698 5683 5669 5657 5646 5636 5624 5612 5599 5586 5573 5560 5547 5535 5524 5514 5504 5497 5491 5487 5485 5484 5484 5485 5487 5490 5494 5498 5502 5506 5510
5819 5813 5807 5801 5793 5785 5776 5767 5756 5745 5733 5720 5705 5691 5676 5662 5650 5639 5628 5616 5603 5589 5576 5562 5548 5535 5522 5510 5500 5491 5483 5478 5474 5472 5471 5471 5473 5475 5479 5483 5488 5492 5497 5502